Home   Weather   Albuquerque   Past weeks
Flag for USA

Past Weather in Albuquerque, New Mexico, USA — Yesterday and Last 2 Weeks

Now
63 °F

High level clouds.


Feels Like: 63 °F
Forecast: 73 / 40 °F
Wind: 3 mph from North

Location: Albuquerque International Airport

Current Time: Mar 26, 2019 at 12:52:51 pm

Latest Report: Mar 26, 2019 at 11:52 am


Visibility: 10 mi

Pressure: 30.12 "Hg (25.22 "Hg at 1510m altitude)

Humidity: 20%

Dew Point: 21 °F

Location of AlbuquerqueLocation

Past Weather in Albuquerque — Graph

°F

Albuquerque Temperature Yesterday

Maximum temperature yesterday: 68 °F (at 5:52 pm)
Minimum temperature yesterday: 43 °F (at 4:52 am)
Average temperature yesterday: 54 °F

High & Low Weather Summary for the Past Weeks

 TemperatureHumidityPressure
High68 °F (Mar 25, 5:52 pm)93% (Mar 12, 8:59 pm)30.39 "Hg (Mar 12, 8:59 pm)
Low31 °F (Mar 15, 5:52 am)12% (Mar 24, 6:52 pm)29.38 "Hg (Mar 13, 4:52 am)
Average48 °F49%30.02 "Hg
* Reported Mar 11 10:52 am — Mar 26 10:52 am, Albuquerque. Weather by CustomWeather, © 2019

Note: Actual official high and low records may vary slightly from our data, if they occured in-between our weather recording intervals... More about our weather records

Advertising

Albuquerque Weather History for the Previous 24 Hours

Scroll right to see more
 ConditionsComfort  
Time TempWeatherWind HumidityBarometerVisibility
10:52 am
Tue, Mar 26
59 °FHigh level clouds.5 mph22%30.15 "Hg10 mi
9:52 am52 °FPartly sunny.6 mph30%30.18 "Hg10 mi
8:52 am47 °FPartly sunny.5 mph34%30.19 "Hg10 mi
7:52 am42 °FPartly sunny.6 mph43%30.16 "Hg10 mi
6:52 am42 °FPassing clouds.5 mph41%30.13 "Hg10 mi
5:52 am43 °FClear.3 mph38%30.11 "Hg10 mi
4:52 am43 °FPassing clouds.6 mph38%30.11 "Hg10 mi
3:52 am44 °FClear.6 mph37%30.11 "Hg10 mi
2:52 am47 °FClear.6 mph30%30.13 "Hg10 mi
1:52 am49 °FPassing clouds.5 mph27%30.12 "Hg10 mi
12:52 am50 °FPassing clouds.8 mph28%30.12 "Hg10 mi
11:52 pm
Mon, Mar 25
53 °FClear.6 mph26%30.13 "Hg10 mi
10:52 pm54 °FClear.5 mph27%30.14 "Hg10 mi
9:52 pm54 °FClear.3 mph27%30.15 "Hg10 mi
8:52 pm55 °FClear.5 mph25%30.13 "Hg10 mi
7:52 pm63 °FClear.5 mph16%30.11 "Hg10 mi
6:52 pm65 °FSunny.6 mph15%30.10 "Hg10 mi
5:52 pm68 °FSunny.3 mph13%30.09 "Hg10 mi
4:52 pm67 °FPassing clouds.3 mph14%30.11 "Hg10 mi
3:52 pm66 °FSunny.3 mph15%30.11 "Hg10 mi
2:52 pm65 °FSunny.No wind16%30.13 "Hg10 mi
1:52 pm62 °FSunny.3 mph18%30.17 "Hg10 mi
12:52 pm61 °FSunny.7 mph19%30.20 "Hg10 mi
Weather by CustomWeather, © 2019

See weather overview